Mirador de Bellmunt





Hora UTC 20:20
Temperatura -1.6 ºC
Humitat 96.0 %
Pressió 1002.8 hPa
Pluja 0.2 mm
Velocitat vent 0.0 km/h
Direcció vent WNW

Dades diàries 2019-11-15



Hora UTC (hivern +1h; estiu +2h)
Temperatura (ºC) Humitat (%) Pressió (hPa) Velocitat vent (km/h) Precipitació (mm)
Hora UTC Aire Humitat Pressió Vel. Dir. Vel. Max Dir. Intent. màx 5 min.
00:05 -1.0 96.0 997.4 0.0 W 0.0 0.0
00:10 -0.9 96.0 997.6 6.4 W 12.9 0.0
00:15 -0.9 96.0 997.6 6.4 W 12.9 0.0
00:20 -1.1 96.0 997.6 1.6 W 17.7 0.0
00:25 -1.1 96.0 997.6 3.2 W 17.7 0.0
00:30 -1.1 96.0 997.7 0.0 W 12.9 0.0
00:35 -1.1 96.0 997.8 9.7 W 12.9 0.0
00:40 -1.0 96.0 997.9 4.8 W 12.9 0.0
00:45 -1.0 96.0 997.9 4.8 W 12.9 0.0
00:50 -0.9 96.0 998.0 3.2 W 14.5 0.0
00:55 -1.0 96.0 998.1 3.2 W 14.5 0.0
01:00 -1.0 96.0 998.0 6.4 W 14.5 0.0
01:05 -0.9 96.0 998.0 0.0 W 11.3 0.0
01:10 -0.9 96.0 998.0 1.6 W 9.7 0.0
01:15 -1.0 96.0 998.0 1.6 W 4.8 0.0
01:20 -1.1 96.0 998.0 0.0 W 4.8 0.0
01:25 -1.2 96.0 998.2 0.0 W 3.2 0.0
01:30 -1.2 96.0 998.3 0.0 W 3.2 0.0
01:35 -1.1 96.0 998.3 0.0 W 3.2 0.0
01:40 -1.1 96.0 998.4 1.6 W 3.2 0.0
01:45 -1.0 96.0 998.5 0.0 W 4.8 0.0
01:50 -1.0 96.0 998.5 0.0 W 4.8 0.0
01:55 -1.1 96.0 998.6 0.0 W 3.2 0.0
02:00 -1.1 95.0 998.5 0.0 W 1.6 0.0
02:05 -1.1 95.0 998.4 0.0 W 1.6 0.0
02:10 -1.1 95.0 998.5 0.0 W 1.6 0.0
02:15 -1.1 95.0 998.5 0.0 W 0.0 0.0
02:20 -1.2 95.0 998.5 0.0 W 0.0 0.0
02:25 -1.3 95.0 998.4 0.0 W 0.0 0.0
02:30 -1.4 95.0 998.4 3.2 W 4.8 0.0
02:35 -1.6 95.0 998.3 6.4 W 6.4 0.0
02:40 -1.6 95.0 998.4 3.2 W 9.7 0.0
02:45 -1.7 95.0 998.5 3.2 W 9.7 0.0
02:50 -1.7 95.0 998.5 6.4 W 6.4 0.0
02:55 -1.7 95.0 998.4 6.4 W 9.7 0.0
03:00 -1.7 95.0 998.4 4.8 W 9.7 0.0
03:05 -1.7 95.0 998.4 4.8 W 9.7 0.0
03:10 -1.7 95.0 998.3 6.4 W 9.7 0.0
03:15 -1.7 95.0 998.2 11.3 W 11.3 0.0
03:20 -1.7 95.0 998.2 6.4 W 12.9 0.0
03:25 -1.7 95.0 998.2 6.4 W 11.3 0.0
03:30 -1.7 95.0 998.3 6.4 W 11.3 0.0
03:35 -1.8 95.0 998.3 9.7 W 11.3 0.0
03:40 -1.8 95.0 998.3 9.7 W 11.3 0.0
03:45 -1.8 95.0 998.3 4.8 W 9.7 0.2
03:50 -1.8 95.0 998.3 0.0 W 9.7 0.0
03:55 -1.7 95.0 998.4 0.0 W 3.2 0.0
04:00 -1.8 95.0 998.5 3.2 W 6.4 0.0
04:05 -1.8 95.0 998.5 9.7 W 11.3 0.0
04:10 -1.9 95.0 998.5 0.0 W 11.3 0.0
04:15 -1.8 95.0 998.6 6.4 W 11.3 0.0
04:20 -1.9 95.0 998.6 3.2 W 9.7 0.0
04:25 -1.9 95.0 998.6 0.0 W 6.4 0.0
04:30 -1.9 95.0 998.6 0.0 W 4.8 0.0
04:35 -1.9 95.0 998.6 1.6 W 4.8 0.0
04:40 -1.8 95.0 998.6 6.4 W 9.7 0.0
04:45 -1.7 95.0 998.6 9.7 W 11.3 0.0
04:50 -1.7 95.0 998.7 6.4 W 11.3 0.0
04:55 -1.7 95.0 998.6 1.6 W 9.7 0.0
05:00 -1.8 95.0 998.7 0.0 W 4.8 0.0
05:05 -1.8 94.0 998.7 0.0 W 1.6 0.0
05:10 -1.8 95.0 998.7 0.0 W 3.2 0.0
05:15 -1.8 95.0 998.7 0.0 W 4.8 0.0
05:20 -1.9 95.0 998.7 3.2 W 9.7 0.0
05:25 -1.8 94.0 998.8 6.4 W 9.7 0.0
05:30 -1.8 95.0 998.8 6.4 W 11.3 0.0
05:35 -1.8 95.0 998.8 4.8 W 12.9 0.0
05:40 -1.8 95.0 998.8 11.3 W 12.9 0.0
05:45 -1.8 95.0 998.8 9.7 W 12.9 0.0
05:50 -1.8 95.0 998.8 12.9 W 16.1 0.0
05:55 -1.7 95.0 998.8 12.9 W 16.1 0.0
06:00 -1.7 95.0 998.8 12.9 W 16.1 0.0
06:05 -1.6 95.0 998.9 14.5 W 17.7 0.0
06:10 -1.6 95.0 998.9 11.3 W 17.7 0.0
06:15 -1.6 95.0 999.0 9.7 W 16.1 0.0
06:20 -1.7 95.0 998.9 11.3 W 16.1 0.0
06:25 -1.7 94.0 998.9 11.3 W 16.1 0.0
06:30 -1.8 94.0 998.7 4.8 W 14.5 0.0
06:35 -1.8 94.0 998.8 16.1 W 17.7 0.0
06:40 -1.8 94.0 998.9 17.7 W 19.3 0.0
06:45 -1.7 94.0 999.0 12.9 W 19.3 0.0
06:50 -1.7 94.0 999.1 6.4 W 19.3 0.0
06:55 -1.7 94.0 999.2 11.3 W 16.1 0.0
07:00 -1.7 94.0 999.3 4.8 W 16.1 0.0
07:05 -1.7 94.0 999.3 6.4 W 14.5 0.0
07:10 -1.7 94.0 999.5 4.8 W 12.9 0.0
07:15 -1.7 94.0 999.5 9.7 W 12.9 0.0
07:20 -1.7 94.0 999.6 11.3 W 14.5 0.0
07:25 -1.7 94.0 999.8 9.7 W 14.5 0.0
07:30 -1.7 94.0 999.9 9.7 W 14.5 0.0
07:35 -1.6 94.0 1000.0 20.9 W 20.9 0.0
07:40 -1.5 94.0 1000.1 14.5 W 24.1 0.0
07:45 -1.4 94.0 1000.2 16.1 W 20.9 0.0
07:50 -1.4 94.0 1000.2 12.9 W 19.3 0.0
07:55 -1.4 94.0 1000.1 19.3 W 19.3 0.0
08:00 -1.3 94.0 1000.0 17.7 W 19.3 0.0
08:05 -1.3 94.0 1000.1 17.7 W 25.7 0.0
08:10 -1.3 94.0 1000.0 25.7 W 30.6 0.0
08:15 -1.2 94.0 1000.0 19.3 W 30.6 0.0
08:20 -1.3 94.0 1000.1 9.7 W 27.4 0.0
08:25 -1.1 94.0 1000.4 4.8 W 24.1 0.0
08:30 -0.8 94.0 1000.5 0.0 W 22.5 0.0
08:35 -0.7 94.0 1000.5 3.2 W 9.7 0.0
08:40 -0.8 94.0 1000.6 12.9 W 16.1 0.0
08:45 -0.8 94.0 1000.5 12.9 W 19.3 0.0
08:50 -0.6 94.0 1000.5 12.9 W 19.3 0.0
08:55 -0.4 94.0 1000.4 22.5 W 22.5 0.0
09:00 -0.4 94.0 1000.4 20.9 W 24.1 0.0
09:05 -0.4 94.0 1000.4 19.3 W 24.1 0.0
09:10 -0.5 93.0 1000.5 9.7 W 24.1 0.0
09:15 -0.6 93.0 1000.6 3.2 W 20.9 0.0
09:20 -0.3 94.0 1000.6 3.2 W 19.3 0.0
09:25 -0.3 94.0 1000.5 17.7 W 19.3 0.0
09:30 -0.2 94.0 1000.5 3.2 W 20.9 0.0
09:35 -0.1 94.0 1000.7 3.2 WSW 14.5 0.0
09:40 -0.2 94.0 1000.8 0.0 SSW 12.9 0.0
09:45 -0.3 94.0 1000.8 1.6 SSW 8.0 0.0
09:50 -0.4 94.0 1000.9 1.6 SSW 11.3 0.0
09:55 -0.5 93.0 1000.7 3.2 S 11.3 0.0
10:00 -0.3 93.0 1000.8 3.2 W 11.3 0.0
10:05 -0.2 93.0 1000.8 0.0 SSW 11.3 0.0
10:10 -0.1 93.0 1000.8 1.6 SSW 8.0 0.0
10:15 0.1 93.0 1000.8 1.6 SW 6.4 0.0
10:20 0.2 94.0 1000.6 3.2 SSW 6.4 0.0
10:25 0.4 94.0 1000.6 3.2 SW 9.7 0.0
10:30 0.4 94.0 1000.6 0.0 WSW 9.7 0.0
10:35 0.5 94.0 1000.6 3.2 WSW 9.7 0.0
10:40 0.7 94.0 1000.5 1.6 WSW 4.8 0.0
10:45 0.9 94.0 1000.3 0.0 W 9.7 0.0
10:50 1.1 94.0 1000.4 0.0 W 6.4 0.0
10:55 0.9 94.0 1000.4 3.2 WNW 6.4 0.0
11:00 1.0 94.0 1000.3 3.2 WNW 6.4 0.0
11:05 1.0 94.0 1000.2 1.6 W 11.3 0.0
11:10 0.8 94.0 1000.2 9.7 W 11.3 0.0
11:15 0.6 94.0 1000.2 9.7 W 11.3 0.0
11:20 0.4 94.0 1000.0 3.2 W 11.3 0.0
11:25 0.5 94.0 1000.0 3.2 W 9.7 0.0
11:30 0.4 94.0 1000.1 0.0 W 11.3 0.0
11:35 0.6 95.0 1000.1 3.2 WSW 12.9 0.0
11:40 0.8 95.0 1000.0 3.2 WSW 12.9 0.0
11:45 0.8 95.0 1000.0 6.4 W 11.3 0.0
11:50 0.8 95.0 1000.0 4.8 WSW 9.7 0.0
11:55 0.7 95.0 999.8 4.8 W 9.7 0.0
12:00 0.7 95.0 999.7 3.2 SSW 8.0 0.0
12:05 0.6 95.0 999.7 4.8 WSW 11.3 0.0
12:10 0.4 95.0 999.7 4.8 W 12.9 0.0
12:15 0.2 95.0 999.7 4.8 W 12.9 0.0
12:20 0.2 95.0 999.6 6.4 W 11.3 0.0
12:25 0.0 95.0 999.7 3.2 WNW 17.7 0.0
12:30 0.0 95.0 999.7 4.8 WSW 17.7 0.0
12:35 0.0 95.0 999.6 4.8 W 14.5 0.0
12:40 0.0 95.0 999.6 9.7 W 16.1 0.0
12:45 0.1 95.0 999.6 3.2 WSW 14.5 0.0
12:50 0.1 95.0 999.6 4.8 W 14.5 0.0
12:55 0.2 95.0 999.5 11.3 W 14.5 0.0
13:00 0.1 95.0 999.5 11.3 WSW 17.7 0.0
13:05 0.2 95.0 999.5 4.8 W 17.7 0.0
13:10 0.2 95.0 999.6 9.7 W 16.1 0.0
13:15 0.3 95.0 999.5 3.2 W 16.1 0.0
13:20 0.3 95.0 999.5 11.3 W 16.1 0.0
13:25 0.4 95.0 999.5 4.8 W 14.5 0.0
13:30 0.5 95.0 999.3 4.8 W 17.7 0.0
13:35 0.6 95.0 999.5 1.6 WSW 17.7 0.0
13:40 0.7 95.0 999.5 6.4 W 16.1 0.0
13:45 0.7 95.0 999.4 3.2 W 14.5 0.0
13:50 0.6 95.0 999.3 6.4 W 14.5 0.0
13:55 0.6 95.0 999.4 4.8 WSW 16.1 0.0
14:00 0.7 95.0 999.5 11.3 WSW 16.1 0.0
14:05 0.6 95.0 999.4 8.0 WSW 17.7 0.0
14:10 0.8 95.0 999.4 9.7 W 17.7 0.0
14:15 0.8 95.0 999.4 12.9 W 17.7 0.0
14:20 0.8 95.0 999.4 6.4 WSW 17.7 0.0
14:25 0.7 95.0 999.6 6.4 WSW 17.7 0.0
14:30 0.6 95.0 999.5 6.4 WSW 17.7 0.0
14:35 0.4 95.0 999.4 6.4 W 17.7 0.0
14:40 0.3 95.0 999.6 3.2 W 17.7 0.0
14:45 0.6 95.0 999.7 14.5 WSW 20.9 0.0
14:50 0.4 95.0 999.6 12.9 WSW 20.9 0.0
14:55 0.4 95.0 999.7 14.5 WSW 20.9 0.0
15:00 0.3 95.0 999.7 6.4 WSW 19.3 0.0
15:05 0.3 95.0 999.8 9.7 W 19.3 0.0
15:10 0.2 95.0 999.9 6.4 WSW 16.1 0.0
15:15 0.2 94.0 999.9 12.9 W 17.7 0.0
15:20 0.2 94.0 1000.0 3.2 W 19.3 0.0
15:25 0.1 94.0 1000.0 11.3 WSW 19.3 0.0
15:30 0.1 94.0 999.8 4.8 W 16.1 0.0
15:35 0.0 95.0 1000.0 3.2 WSW 14.5 0.0
15:40 -0.1 94.0 999.8 20.9 WNW 22.5 0.0
15:45 -0.2 94.0 1000.0 19.3 W 27.4 0.0
15:50 -0.1 95.0 1000.0 6.4 W 24.1 0.0
15:55 -0.1 95.0 1000.1 4.8 WNW 22.5 0.0
16:00 -0.2 95.0 1000.2 9.7 WNW 19.3 0.0
16:05 -0.2 95.0 1000.2 9.7 W 22.5 0.0
16:10 -0.3 95.0 1000.2 11.3 W 22.5 0.0
16:15 -0.5 95.0 1000.1 16.1 W 20.9 0.0
16:20 -0.7 95.0 1000.2 12.9 W 20.9 0.0
16:25 -0.8 94.0 1000.4 11.3 WNW 20.9 0.0
16:30 -0.8 95.0 1000.5 3.2 WNW 16.1 0.0
16:35 -0.8 95.0 1000.6 6.4 WNW 16.1 0.0
16:40 -0.8 95.0 1000.6 6.4 W 16.1 0.0
16:45 -0.9 95.0 1000.6 8.0 WNW 14.5 0.0
16:50 -0.9 95.0 1000.4 11.3 WNW 19.3 0.0
16:55 -0.9 95.0 1000.4 6.4 W 20.9 0.0
17:00 -1.1 95.0 1000.5 11.3 NW 20.9 0.0
17:05 -1.1 95.0 1000.6 14.5 WNW 17.7 0.0
17:10 -1.1 95.0 1000.7 14.5 WNW 22.5 0.0
17:15 -1.1 95.0 1000.9 9.7 WNW 22.5 0.0
17:20 -1.2 95.0 1001.0 9.7 W 19.3 0.0
17:25 -1.2 95.0 1001.1 12.9 WNW 17.7 0.0
17:30 -1.2 95.0 1001.3 3.2 W 16.1 0.0
17:35 -1.3 95.0 1001.3 4.8 W 12.9 0.0
17:40 -1.3 95.0 1001.3 9.7 W 12.9 0.0
17:45 -1.3 95.0 1001.3 4.8 W 12.9 0.0
17:50 -1.3 95.0 1001.5 1.6 W 11.3 0.0
17:55 -1.3 95.0 1001.5 4.8 W 8.0 0.0
18:00 -1.3 95.0 1001.6 4.8 W 8.0 0.0
18:05 -1.3 95.0 1001.5 3.2 W 6.4 0.0
18:10 -1.3 95.0 1001.6 1.6 W 6.4 0.0
18:15 -1.3 95.0 1001.6 0.0 W 6.4 0.0
18:20 -1.3 95.0 1001.7 3.2 W 4.8 0.0
18:25 -1.3 95.0 1001.8 1.6 W 6.4 0.0
18:30 -1.3 95.0 1001.9 1.6 W 6.4 0.0
18:35 -1.3 95.0 1001.9 3.2 W 6.4 0.0
18:40 -1.4 95.0 1002.0 4.8 WNW 11.3 0.0
18:45 -1.4 95.0 1002.0 0.0 WNW 11.3 0.0
18:50 -1.4 95.0 1002.0 1.6 WNW 4.8 0.0
18:55 -1.4 95.0 1002.1 0.0 WNW 3.2 0.0
19:00 -1.3 95.0 1002.2 1.6 WNW 3.2 0.0
19:05 -1.3 96.0 1002.3 0.0 WNW 3.2 0.0
19:10 -1.4 95.0 1002.3 0.0 WNW 3.2 0.0
19:15 -1.4 95.0 1002.4 1.6 WNW 3.2 0.0
19:20 -1.3 96.0 1002.4 0.0 WNW 3.2 0.0
19:25 -1.2 96.0 1002.4 0.0 WNW 3.2 0.0
19:30 -1.2 96.0 1002.4 4.8 WNW 4.8 0.0
19:35 -1.4 95.0 1002.3 12.9 WNW 14.5 0.0
19:40 -1.3 95.0 1002.3 4.8 WNW 14.5 0.0
19:45 -1.4 95.0 1002.4 4.8 WNW 8.0 0.0
19:50 -1.6 96.0 1002.3 0.0 WNW 8.0 0.0
19:55 -1.4 96.0 1002.3 0.0 WNW 8.0 0.0
20:00 -1.1 96.0 1002.4 0.0 WNW 3.2 0.0
20:05 -1.4 96.0 1002.6 1.6 WNW 4.8 0.0
20:10 -1.6 96.0 1002.6 0.0 WNW 4.8 0.0
20:15 -1.6 96.0 1002.8 0.0 WNW 1.6 0.0
20:20 -1.6 96.0 1002.8 0.0 WNW 1.6 0.0
Màxima 1.1 96.0 1002.8 25.7 W 30.6 0.2
Mínima -1.9 93.0 997.4
Total 0.2